Phoenix, AZ

7:07 AM MST on February 22, 2017 (GMT -0700)
Phoenix Sky Harbor International

Weather History for KPHX - February, 2013

Change the Weather History Date:

Tuesday, February 19, 2013

  Actual Average Record
Temperature  
Mean Temperature 62 °F 60 °F  
Max Temperature 74 °F 71 °F 88 °F (1977)
Min Temperature 50 °F 49 °F 29 °F (1955)
Degree Days  
Heating Degree Days 3 5  
Month to date heating degree days 111 120  
Since 1 July heating degree days 743 790  
Cooling Degree Days 0 1  
Month to date cooling degree days 3 2  
Year to date cooling degree days 8 4  
Growing Degree Days 11 (Base 50)    
Moisture  
Dew Point 22 °F    
Average Humidity 27    
Maximum Humidity 41    
Minimum Humidity 12    
Precipitation  
Precipitation 0.00 in 0.04 in 0.93 in (2005)
Month to date precipitation 0.08 0.58  
Year to date precipitation 1.47 1.49  
Snow  
Snow 0.00 in - - ()
Month to date snowfall 0.0  
Year to date snowfall 0.0  
Since 1 July snowfall 0.0  
Snow Depth 0.00 in    
Sea Level Pressure  
Sea Level Pressure 29.74 in    
Wind  
Wind Speed 9 mph (SSE)    
Max Wind Speed 20 mph    
Max Gust Speed 28 mph    
Visibility 10 miles    
Events      
T = Trace of Precipitation, MM = Missing Value Source: NWS Daily Summary

Daily Weather History Graph

Daily Weather History Graph

Search for Another Location

Airport or City:

Trip Planner

Search our weather history database for the weather conditions in past years. The results will help you decide how hot, cold, wet, or windy it might be!

Date:

Astronomy

Feb. 19, 2013 Rise Set
Actual Time 7:07 AM MST 6:16 PM MST
Civil Twilight 6:42 AM MST 6:41 PM MST
Nautical Twilight 6:13 AM MST 7:10 PM MST
Astronomical Twilight 5:44 AM MST 7:39 PM MST
Moon 1:00 PM MST (2/19) 2:33 AM MST (2/19)
Length of Visible Light 11h 59m
Length of Day
11h 09m
Waxing Gibbous, 68% of the Moon is Illuminated
Feb 19
Waxing Gibbous
Feb 25
Full
Mar 4
Last Quarter
Mar 11
New
Mar 19
First Quarter

Hourly Weather History & Observations

Time (MST) Temp. Dew Point Humidity Pressure Visibility Wind Dir Wind Speed Gust Speed Precip Events Conditions
12:51 AM 55.0 °F 25.0 °F 31% 29.85 in 10.0 mi East 5.8 mph - N/A   Partly Cloudy
1:51 AM 55.9 °F 24.1 °F 29% 29.85 in 10.0 mi East 8.1 mph - N/A   Scattered Clouds
2:51 AM 55.0 °F 24.1 °F 30% 29.83 in 10.0 mi East 6.9 mph - N/A   Scattered Clouds
3:51 AM 53.1 °F 25.0 °F 34% 29.82 in 10.0 mi ESE 4.6 mph - N/A   Scattered Clouds
4:51 AM 52.0 °F 24.1 °F 34% 29.81 in 10.0 mi East 10.4 mph - N/A   Scattered Clouds
5:51 AM 52.0 °F 24.1 °F 34% 29.83 in 10.0 mi East 8.1 mph - N/A   Mostly Cloudy
6:51 AM 51.1 °F 26.1 °F 38% 29.83 in 10.0 mi ENE 6.9 mph - N/A   Mostly Cloudy
7:51 AM 51.1 °F 28.0 °F 41% 29.84 in 10.0 mi East 8.1 mph - N/A   Mostly Cloudy
8:51 AM 54.0 °F 26.1 °F 34% 29.84 in 10.0 mi East 8.1 mph - N/A   Mostly Cloudy
9:51 AM 59.0 °F 21.9 °F 24% 29.83 in 10.0 mi ENE 3.5 mph - N/A   Mostly Cloudy
11:51 AM 69.1 °F 18.0 °F 14% 29.79 in 10.0 mi South 15.0 mph 20.7 mph N/A   Scattered Clouds
12:51 PM 70.0 °F 17.1 °F 13% 29.75 in 10.0 mi South 15.0 mph 20.7 mph N/A   Partly Cloudy
1:51 PM 72.0 °F 18.0 °F 13% 29.71 in 10.0 mi South 10.4 mph 21.9 mph N/A   Partly Cloudy
2:51 PM 72.0 °F 15.1 °F 11% 29.68 in 10.0 mi SSW 6.9 mph - N/A   Partly Cloudy
3:51 PM 72.0 °F 15.1 °F 11% 29.66 in 10.0 mi West 8.1 mph - N/A   Scattered Clouds
5:51 PM 70.0 °F 18.0 °F 14% 29.62 in 10.0 mi SW 8.1 mph - N/A   Scattered Clouds
6:51 PM 66.9 °F 19.9 °F 17% 29.63 in 10.0 mi SSW 11.5 mph - N/A   Scattered Clouds
7:51 PM 66.0 °F 16.0 °F 15% 29.65 in 10.0 mi SW 13.8 mph 21.9 mph N/A   Scattered Clouds
8:51 PM 64.9 °F 18.0 °F 16% 29.65 in 10.0 mi West 9.2 mph - N/A   Mostly Cloudy
9:51 PM 62.1 °F 24.1 °F 23% 29.65 in 10.0 mi WSW 9.2 mph - N/A   Mostly Cloudy
10:51 PM 60.1 °F 24.1 °F 25% 29.65 in 10.0 mi SSW 6.9 mph - N/A   Overcast
11:51 PM 57.9 °F 26.1 °F 30% 29.65 in 10.0 mi SW 4.6 mph - N/A   Overcast